Torna al catalogo

METEOR 1-27

AttivoMeteoPO
NORAD 9903·PAYLOAD·🇷🇺 Russia

Lanciato Apr 5, 1977 da Plesetsk Cosmodrome

Loading…

Prossimi Passaggi (prossime 24 ore)

TLE

AggiornatoSource: Space-Track

Epoca: Sep 14, 2026, 09:38 UTC

1 09903U 77024A   26257.40143066  .00000170  00000-0  90330-4 0  9994
2 09903  81.2704  51.2486 0037844 110.9257 249.5970 14.08730630540111

Traccia METEOR 1-27 in tempo reale con AllMySat

Download on the App Store